This demonstration page uses our WeatherBlox Daily Observations layout. Learn more.

Left ArrowRight Arrow

44.8408, -93.29828

Hourly Observations for August 17, 2022

Temp ( °F °C ) Dew Point ( °F °C ) Humidity (%) Winds ( mph kmh ) Pressure ( in mb ) Visibility ( mi km ) Precip ( " mm )
1:53 am 01:53 Partly Cloudy 71 21.7 58 14.4 63 63 S 3 6 30.12 1020 10 16 0.00 0.00
2:53 am 02:53 Partly Cloudy 70 21.1 57 13.9 63 63 SW 3 6 30.14 1021 10 16 0.00 0.00
3:53 am 03:53 Partly Cloudy 69 20.6 57 13.9 65 65 Calm 30.14 1021 10 16 0.00 0.00
4:53 am 04:53 Mostly Cloudy 67 19.4 57 13.9 71 71 Calm 30.14 1021 10 16 0.00 0.00
5:53 am 05:53 Mostly Cloudy 67 19.4 57 13.9 71 71 WSW 5 7 30.15 1021 10 16 0.00 0.00
6:53 am 06:53 Mostly Cloudy 67 19.4 57 13.9 71 71 Calm 30.16 1022 10 16 0.00 0.00
7:53 am 07:53 Mostly Cloudy 69 20.6 57 13.9 65 65 SW 5 7 30.17 1022 10 16 0.00 0.00
8:53 am 08:53 Partly Cloudy 71 21.7 59 15 66 66 S 5 7 30.17 1022 10 16 0.00 0.00
9:53 am 09:53 Partly Cloudy 74 23.3 60 15.6 62 62 VRB 3 6 30.16 1021 10 16 0.00 0.00
10:53 am 10:53 Partly Cloudy 77 25 59 15 54 54 W 6 9 30.15 1021 10 16 0.00 0.00
11:53 am 11:53 Partly Cloudy 78 25.6 61 16.1 56 56 SW 6 9 30.15 1021 10 16 0.00 0.00
12:53 pm 12:53 Mostly Cloudy 79 26.1 61 16.1 54 54 S 7 11 30.13 1020 10 16 0.00 0.00
1:53 pm 13:53 Mostly Cloudy 79 26.1 61 16.1 54 54 Calm 30.11 1020 10 16 0.00 0.00
2:53 pm 14:53 Partly Cloudy 81 27.2 60 15.6 49 49 SSW 9 15 30.09 1019 10 16 0.00 0.00
3:53 pm 15:53 Partly Cloudy 82 27.8 61 16.1 49 49 SSW 9 15 30.08 1019 10 16 0.00 0.00
4:34 pm 16:34 Mostly Cloudy with Nearby Thunderstorms 83 28.3 61 16.1 48 48 WSW 15 24 30.03 1017 10 16 0.00 0.00
4:53 pm 16:53 Mostly Cloudy with Nearby Thunderstorms 82 27.8 60 15.6 47 47 SSW 7 11 30.07 1018 10 16 0.00 0.00
5:21 pm 17:21 Mostly Cloudy with Thunderstorms 76 24.4 61 16.1 60 60 E 18 30 30.04 1017 10 16 0.00 0.00
5:45 pm 17:45 Cloudy with Nearby Thunderstorms 73 22.8 62 16.7 68 68 ESE 18 30 30.05 1018 10 16 0.00 0.00
5:53 pm 17:53 Cloudy with Thunderstorms 72 22.2 63 17.2 73 73 ESE 20 31 30.08 1019 5 8 0.01 0.13
6:10 pm 18:10 Mostly Cloudy with Light Rain 71 21.7 65 18.3 81 81 ESE 12 19 30.05 1018 7 11 0.06 1.52
6:53 pm 18:53 Mostly Cloudy 73 22.8 65 18.3 76 76 SSE 13 20 30.06 1018 10 16 0.07 1.78
7:53 pm 19:53 Mostly Cloudy 72 22.2 63 17.2 73 73 SSW 7 11 30.04 1017 10 16 0.01 0.25
8:53 pm 20:53 Mostly Cloudy with Light Rain 72 22.2 64 17.8 76 76 NE 3 6 30.04 1017 10 16 0.01 0.13
9:28 pm 21:28 Mostly Cloudy with Thunderstorms 69 20.6 65 18.3 87 87 ENE 9 15 30.05 1018 10 16 0.01 0.13
9:48 pm 21:48 Mostly Cloudy with Light Rain 70 21 66 19 88 88 Calm 30.03 1017 10 16 0.01 0.13
9:53 pm 21:53 Mostly Cloudy with Light Rain 69 20.6 66 18.9 90 90 N 3 6 30.05 1018 10 16 0.01 0.13
10:53 pm 22:53 Cloudy with Light Rain 70 21.1 67 19.4 90 90 W 5 7 30.04 1017 7 11 0.05 1.27
11:53 pm 23:53 Mostly Cloudy 71 21.7 67 19.4 87 87 Calm 30.03 1017 9 14 0.05 1.27

Powered by AerisWeather